Location: B?lite?ti
(46.2833°N, 22.7333°E)
Time: 15:40:22
(UTC+00:00)

Cosmos 1833 Rocket - Pass Details

Date: 24 January 2021
Orbit: 833 x 839 km, 71.0° (Epoch: 01 March)

Event Time Altitude Azimuth Distance (km) Brightness Sun altitude
Rises 18:26:14 0° 327° (NNW) 3,391 6.3 -31.6°
Reaches altitude 10° 18:28:48 10° 321° (NW) 2,453 5.6 -32.1°
Maximum altitude 18:34:02 41° 253° (WSW) 1,190 3.7 -33.0°
Enters shadow 18:34:58 38° 228° (SW) 1,249 3.8 -33.1°
